Weather History for Fosston, MN

Change the Weather History Date:

Friday, March 21, 2014

  Actual Average Record
Temperature  
Mean Temperature 18 °F -  
Max Temperature 35 °F 37 °F 68 °F (2012)
Min Temperature 0 °F 17 °F -19 °F (1965)
Degree Days  
Heating Degree Days 47    
Moisture  
Dew Point 17 °F    
Average Humidity 86    
Maximum Humidity 100    
Minimum Humidity 73    
Precipitation  
Precipitation 0.35 in - - ()
Sea Level Pressure  
Sea Level Pressure 29.94 in    
Wind  
Wind Speed 13 mph (NNW)    
Max Wind Speed 24 mph    
Max Gust Speed 31 mph    
Visibility 5 miles    
Events Rain , Snow    
Averages and records for this station are not official NWS values.
T = Trace of Precipitation, MM = Missing Value Source: NWS Daily Summary

Daily Weather History Graph

Daily Weather History Graph

Search for Another Location

Airport:

Trip Planner

Search our weather history database for the weather conditions in past years. The results will help you decide how hot, cold, wet, or windy it might be!

Date:

Astronomy

Mar. 21, 2014 Rise Set
Actual Time 7:23 AM CDT 7:37 PM CDT
Civil Twilight 6:53 AM CDT 8:08 PM CDT
Nautical Twilight 6:17 AM CDT 8:44 PM CDT
Astronomical Twilight 5:39 AM CDT 9:21 PM CDT
Moon 12:15 AM CDT (3/21) 9:57 AM CDT (3/21)
Length of Visible Light 13h 14m
Length of Day
12h 13m
Waning Gibbous, 75% of the Moon is Illuminated
Mar 21
Waning Gibbous
Mar 23
Last Quarter
Mar 30
New
Apr 7
First Quarter
Apr 15
Full

Hourly Weather History & Observations

Time (CDT) Temp. Windchill Dew Point Humidity Pressure Visibility Wind Dir Wind Speed Gust Speed Precip Events Conditions
12:15 AM 32.0 °F 24.8 °F 28.4 °F 87% 29.76 in 7.0 mi ESE 8.1 mph - 0.02 in   Overcast
12:35 AM 32.0 °F 24.2 °F 28.4 °F 87% 29.75 in 7.0 mi ESE 9.2 mph - 0.02 in   Overcast
12:55 AM 33.8 °F 26.4 °F 30.2 °F 87% 29.74 in 7.0 mi ESE 9.2 mph - 0.03 in   Overcast
1:15 AM 33.8 °F 25.8 °F 30.2 °F 87% 29.74 in 7.0 mi ESE 10.4 mph 17.3 mph N/A   Light Drizzle
1:35 AM 33.8 °F 25.8 °F 30.2 °F 87% 29.73 in 7.0 mi SE 10.4 mph - N/A   Light Drizzle
1:55 AM 33.8 °F 25.8 °F 32.0 °F 93% 29.72 in 7.0 mi SE 10.4 mph - N/A   Light Drizzle
2:15 AM 33.8 °F 24.8 °F 33.8 °F 100% 29.71 in 7.0 mi SSE 12.7 mph 19.6 mph N/A   Overcast
2:35 AM 35.6 °F 27.5 °F 33.8 °F 93% 29.70 in 10.0 mi SSE 11.5 mph - N/A   Overcast
2:55 AM 35.6 °F 27.1 °F 33.8 °F 93% 29.70 in 10.0 mi SSE 12.7 mph - N/A   Light Drizzle
3:15 AM 35.6 °F 26.2 °F 32.0 °F 87% 29.69 in 10.0 mi SSE 15.0 mph 19.6 mph N/A   Overcast
3:35 AM 35.6 °F 27.5 °F 32.0 °F 87% 29.69 in 10.0 mi SSE 11.5 mph - N/A   Overcast
3:55 AM 35.6 °F 26.6 °F 32.0 °F 87% 29.68 in 10.0 mi SSE 13.8 mph - N/A   Light Drizzle
4:15 AM 33.8 °F 25.8 °F 30.2 °F 87% 29.67 in 7.0 mi South 10.4 mph - N/A Rain Light Rain
4:35 AM 33.8 °F 25.8 °F 32.0 °F 93% 29.67 in 5.0 mi South 10.4 mph - N/A Rain Rain
4:55 AM 33.8 °F 27.7 °F 32.0 °F 93% 29.66 in 5.0 mi SSE 6.9 mph - N/A   Drizzle
5:15 AM 33.8 °F 27.7 °F 32.0 °F 93% 29.65 in 5.0 mi South 6.9 mph - N/A Rain Rain
5:35 AM 33.8 °F - 32.0 °F 93% 29.66 in 3.0 mi Calm Calm - 0.02 in Rain Rain
5:54 AM 33.8 °F 29.6 °F 32.0 °F 93% 29.67 in 2.5 mi NNW 4.6 mph - 0.07 in Rain Rain
6:15 AM 30.2 °F 24.3 °F 30.2 °F 100% 29.69 in 1.0 mi NNE 5.8 mph - 0.07 in Snow Light Snow
6:35 AM 30.2 °F 25.4 °F 30.2 °F 100% 29.69 in 0.5 mi East 4.6 mph - 0.10 in Snow Snow
6:54 AM 30.2 °F 25.4 °F 30.2 °F 100% 29.69 in 0.5 mi NE 4.6 mph - 0.14 in Snow Snow
7:15 AM 30.2 °F - 30.2 °F 100% 29.69 in 1.0 mi Calm Calm - 0.04 in Snow Snow
7:35 AM 30.2 °F 19.8 °F 30.2 °F 100% 29.70 in 1.5 mi North 13.8 mph - 0.07 in Snow Light Snow
7:54 AM 30.2 °F 18.9 °F 30.2 °F 100% 29.71 in 3.0 mi North 16.1 mph 20.7 mph 0.10 in Snow Light Snow
8:15 AM 30.2 °F 17.4 °F 28.4 °F 93% 29.72 in 1.2 mi North 20.7 mph - 0.01 in Snow Light Snow
8:35 AM 30.2 °F 16.5 °F 28.4 °F 93% 29.73 in 1.2 mi North 24.2 mph 29.9 mph 0.01 in Snow Light Snow
8:55 AM 30.2 °F 17.1 °F 28.4 °F 93% 29.75 in 0.8 mi North 21.9 mph - 0.01 in Snow Light Snow
9:15 AM 30.2 °F 17.4 °F 28.4 °F 93% 29.76 in 0.5 mi North 20.7 mph - N/A Snow Light Snow
9:35 AM 30.2 °F 17.1 °F 28.4 °F 93% 29.78 in 1.5 mi NNW 21.9 mph 28.8 mph N/A Snow Light Snow
9:55 AM 28.4 °F 14.1 °F 26.6 °F 93% 29.79 in 1.8 mi North 24.2 mph 28.8 mph N/A   Overcast
10:15 AM 28.4 °F 15.8 °F 26.6 °F 93% 29.81 in 1.8 mi NNW 18.4 mph 29.9 mph N/A   Overcast
10:35 AM 26.6 °F 11.7 °F 24.8 °F 93% 29.83 in 1.2 mi NNW 24.2 mph 29.9 mph N/A   Overcast
10:55 AM 24.8 °F 9.6 °F 21.2 °F 86% 29.85 in 1.0 mi NNW 23.0 mph 27.6 mph N/A Snow Light Snow
11:15 AM 23.0 °F 7.6 °F 19.4 °F 86% 29.87 in 1.2 mi NW 21.9 mph 27.6 mph N/A   Overcast
11:35 AM 21.2 °F 6.4 °F 17.6 °F 86% 29.89 in 1.0 mi NW 18.4 mph 31.1 mph N/A Snow Light Snow
11:55 AM 21.2 °F 5.2 °F 15.8 °F 80% 29.91 in 2.5 mi NNW 21.9 mph 27.6 mph N/A   Haze
12:15 PM 21.2 °F 6.0 °F 15.8 °F 80% 29.92 in 3.0 mi NW 19.6 mph 26.5 mph N/A   Haze
12:35 PM 19.4 °F 3.2 °F 15.8 °F 86% 29.94 in 3.0 mi NNW 20.7 mph 27.6 mph N/A   Haze
12:55 PM 19.4 °F 3.2 °F 15.8 °F 86% 29.95 in 2.0 mi NNW 20.7 mph 27.6 mph N/A   Overcast
1:15 PM 19.4 °F 3.6 °F 15.8 °F 86% 29.97 in 2.5 mi NNW 19.6 mph 28.8 mph N/A   Haze
1:35 PM 19.4 °F 3.6 °F 14.0 °F 80% 29.98 in 2.0 mi NNW 19.6 mph 23.0 mph N/A   Haze
1:55 PM 19.4 °F 3.2 °F 12.2 °F 74% 29.99 in 1.2 mi NNW 20.7 mph 24.2 mph N/A   Haze
2:15 PM 19.4 °F 4.1 °F 12.2 °F 74% 30.00 in 2.0 mi NW 18.4 mph 23.0 mph N/A Snow Light Snow
2:35 PM 19.4 °F 3.6 °F 12.2 °F 74% 30.01 in 1.5 mi NNW 19.6 mph 29.9 mph N/A Snow Light Snow
2:55 PM 17.6 °F 0.5 °F 10.4 °F 73% 30.03 in 1.8 mi NW 21.9 mph 27.6 mph N/A Snow Light Snow
3:15 PM 17.6 °F 0.5 °F 10.4 °F 73% 30.04 in 1.0 mi NNW 21.9 mph 27.6 mph N/A Snow Light Snow
3:35 PM 17.6 °F 2.2 °F 10.4 °F 73% 30.06 in 5.0 mi NW 17.3 mph 23.0 mph N/A Snow Light Snow
3:55 PM 17.6 °F 2.2 °F 10.4 °F 73% 30.07 in 3.0 mi NW 17.3 mph 26.5 mph N/A   Haze
4:15 PM 17.6 °F 0.9 °F 10.4 °F 73% 30.08 in 5.0 mi NNW 20.7 mph - N/A Snow Light Snow
4:35 PM 15.8 °F -0.6 °F 8.6 °F 73% 30.09 in 3.0 mi NW 18.4 mph 24.2 mph N/A Snow Light Snow
4:55 PM 15.8 °F -1.5 °F 8.6 °F 73% 30.11 in 5.0 mi NW 20.7 mph 25.3 mph N/A Snow Light Snow
5:15 PM 15.8 °F 0.3 °F 8.6 °F 73% 30.12 in 3.0 mi NW 16.1 mph - N/A Snow Light Snow
5:35 PM 12.2 °F -5.3 °F 6.8 °F 79% 30.13 in 4.0 mi NW 18.4 mph 24.2 mph N/A Snow Light Snow
5:55 PM 12.2 °F -4.8 °F 5.0 °F 73% 30.15 in 4.0 mi NW 17.3 mph 27.6 mph N/A   Haze
6:15 PM 10.4 °F -6.6 °F 3.2 °F 73% 30.16 in 7.0 mi NW 16.1 mph 25.3 mph N/A   Overcast
6:35 PM 8.6 °F -8.3 °F 3.2 °F 79% 30.18 in 7.0 mi NW 15.0 mph 26.5 mph N/A   Mostly Cloudy
6:55 PM 8.6 °F -9.5 °F 1.4 °F 73% 30.19 in 5.0 mi NW 17.3 mph 26.5 mph N/A   Haze
7:15 PM 6.8 °F -10.0 °F 1.4 °F 79% 30.20 in 7.0 mi NW 13.8 mph 23.0 mph N/A   Mostly Cloudy
7:35 PM 3.2 °F -15.3 °F -0.4 °F 85% 30.21 in 10.0 mi NW 15.0 mph - N/A   Scattered Clouds
7:55 PM 3.2 °F -15.3 °F -0.4 °F 85% 30.22 in 10.0 mi NW 15.0 mph 21.9 mph N/A   Scattered Clouds
8:15 PM 3.2 °F -14.6 °F -0.4 °F 85% 30.24 in 7.0 mi NW 13.8 mph 19.6 mph N/A   Scattered Clouds
8:35 PM 3.2 °F -13.9 °F -0.4 °F 85% 30.25 in 7.0 mi NW 12.7 mph 20.7 mph N/A   Mostly Cloudy
8:55 PM 1.4 °F -18.8 °F -2.2 °F 85% 30.25 in 7.0 mi NW 17.3 mph 21.9 mph N/A   Mostly Cloudy
9:15 PM 1.4 °F -16.9 °F -2.2 °F 85% 30.26 in 7.0 mi NW 13.8 mph 18.4 mph N/A   Mostly Cloudy
9:35 PM 1.4 °F -16.9 °F -2.2 °F 85% 30.27 in 7.0 mi NW 13.8 mph - N/A   Mostly Cloudy
9:55 PM 1.4 °F -18.8 °F -2.2 °F 85% 30.28 in 7.0 mi NW 17.3 mph - N/A   Scattered Clouds
10:15 PM 1.4 °F -17.6 °F -2.2 °F 85% 30.29 in 10.0 mi NNW 15.0 mph - N/A   Scattered Clouds
10:35 PM 1.4 °F -18.2 °F -4.0 °F 78% 30.30 in 10.0 mi NW 16.1 mph 23.0 mph N/A   Clear
10:55 PM 1.4 °F -16.9 °F -2.2 °F 85% 30.30 in 10.0 mi NW 13.8 mph - N/A   Clear
11:15 PM 1.4 °F -16.9 °F -4.0 °F 78% 30.31 in 10.0 mi NW 13.8 mph - N/A   Clear
11:35 PM 1.4 °F -16.9 °F -4.0 °F 78% 30.32 in 10.0 mi NW 13.8 mph - N/A   Clear
11:55 PM -0.4 °F -16.7 °F -4.0 °F 85% 30.32 in 10.0 mi NW 10.4 mph - N/A   Clear